TimeCST,TemperatureF,Dew PointF,Humidity,Sea Level PressureIn,VisibilityMPH,Wind Direction,Wind SpeedMPH,Gust SpeedMPH,PrecipitationIn,Events,Conditions,WindDirDegrees,DateUTC
12:54 AM,27.0,24.1,89,30.43,10.0,ESE,3.5,-,N/A,,Clear,120,2013-01-10 06:54:00
1:54 AM,25.0,21.9,88,30.43,10.0,ESE,4.6,-,N/A,,Clear,120,2013-01-10 07:54:00
2:54 AM,25.0,21.9,88,30.40,10.0,SE,5.8,-,N/A,,Clear,130,2013-01-10 08:54:00
3:54 AM,27.0,23.0,85,30.40,10.0,SE,6.9,-,N/A,,Clear,130,2013-01-10 09:54:00
4:54 AM,27.0,24.1,89,30.38,10.0,SE,6.9,-,N/A,,Clear,130,2013-01-10 10:54:00
5:54 AM,27.0,24.1,89,30.38,10.0,SE,5.8,-,N/A,,Clear,130,2013-01-10 11:54:00
6:54 AM,24.1,21.0,88,30.37,9.0,ESE,5.8,-,N/A,,Clear,120,2013-01-10 12:54:00
7:54 AM,25.0,21.9,88,30.35,8.0,East,5.8,-,N/A,,Clear,90,2013-01-10 13:54:00
8:54 AM,28.0,24.1,85,30.33,9.0,ESE,8.1,-,N/A,,Clear,110,2013-01-10 14:54:00
9:54 AM,30.9,25.0,79,30.30,10.0,ESE,8.1,-,N/A,,Clear,110,2013-01-10 15:54:00
10:54 AM,35.1,24.1,64,30.24,10.0,ESE,10.4,-,N/A,,Clear,110,2013-01-10 16:54:00
11:54 AM,36.0,24.1,62,30.17,10.0,ESE,12.7,-,N/A,,Scattered Clouds,120,2013-01-10 17:54:00
12:54 PM,37.0,23.0,57,30.10,10.0,ESE,11.5,-,N/A,,Clear,120,2013-01-10 18:54:00
1:54 PM,37.0,25.0,62,30.08,10.0,ESE,15.0,-,N/A,,Overcast,120,2013-01-10 19:54:00
2:51 PM,35.6,26.6,70,30.00,10.0,ESE,13.8,-,N/A,,Overcast,110,2013-01-10 20:51:00
2:54 PM,36.0,26.1,67,30.03,10.0,ESE,13.8,-,0.00,Rain,Light Rain,110,2013-01-10 20:54:00
3:54 PM,34.0,30.0,85,30.00,3.0,ESE,16.1,-,0.03,Rain,Light Rain,110,2013-01-10 21:54:00
4:54 PM,34.0,30.9,89,29.98,5.0,SE,17.3,23.0,0.02,Rain,Light Rain,130,2013-01-10 22:54:00
5:11 PM,33.8,32.0,93,29.94,4.0,SE,17.3,24.2,0.02,Rain,Light Rain,130,2013-01-10 23:11:00
5:26 PM,33.8,33.8,100,29.94,3.0,SE,17.3,24.2,0.06,Rain,Light Rain,130,2013-01-10 23:26:00
5:43 PM,33.8,33.8,100,29.93,2.5,SE,15.0,25.3,0.07,Rain,Light Rain,130,2013-01-10 23:43:00
5:54 PM,34.0,33.1,96,29.95,2.0,SE,17.3,-,0.08,Rain,Light Rain,130,2013-01-10 23:54:00
6:01 PM,33.8,33.8,100,29.92,1.8,SE,17.3,26.5,0.01,Rain,Light Rain,130,2013-01-11 00:01:00
6:10 PM,33.8,33.8,100,29.92,2.0,SE,16.1,24.2,0.01,Rain,Light Rain,130,2013-01-11 00:10:00
6:22 PM,33.8,33.8,100,29.92,3.0,SE,17.3,24.2,0.01,,Overcast,130,2013-01-11 00:22:00
6:30 PM,33.8,33.8,100,29.91,2.5,SE,13.8,-,0.01,Rain,Light Rain,130,2013-01-11 00:30:00
6:38 PM,33.8,33.8,100,29.91,4.0,SE,11.5,20.7,0.02,,Overcast,130,2013-01-11 00:38:00
6:54 PM,34.0,33.1,96,29.94,3.0,SE,11.5,-,0.02,,Overcast,130,2013-01-11 00:54:00
7:07 PM,33.8,33.8,100,29.89,4.0,SE,11.5,-,N/A,,Overcast,130,2013-01-11 01:07:00
7:54 PM,34.0,33.1,96,29.89,5.0,SE,10.4,-,0.00,,Overcast,130,2013-01-11 01:54:00
8:39 PM,33.8,33.8,100,29.84,2.5,SE,8.1,-,N/A,,Overcast,130,2013-01-11 02:39:00
8:54 PM,33.8,33.8,100,29.82,1.8,ESE,9.2,-,N/A,,Overcast,110,2013-01-11 02:54:00
9:04 PM,33.8,33.8,100,29.80,2.0,ESE,11.5,-,N/A,,Overcast,120,2013-01-11 03:04:00
9:25 PM,33.8,33.8,100,29.82,3.0,SE,9.2,-,N/A,,Overcast,130,2013-01-11 03:25:00
9:54 PM,34.0,34.0,100,29.83,2.5,SE,12.7,-,N/A,,Overcast,130,2013-01-11 03:54:00
10:45 PM,35.6,33.8,93,29.77,1.8,SE,8.1,-,N/A,,Overcast,130,2013-01-11 04:45:00
10:54 PM,35.1,34.0,96,29.79,2.0,SE,9.2,-,N/A,,Overcast,130,2013-01-11 04:54:00
11:09 PM,35.6,33.8,93,29.75,1.5,SE,8.1,-,N/A,,Overcast,130,2013-01-11 05:09:00
11:41 PM,35.6,33.8,93,29.75,0.5,Calm,Calm,-,N/A,Fog,Fog,0,2013-01-11 05:41:00
11:54 PM,35.1,34.0,96,29.77,0.2,Calm,Calm,-,N/A,Fog,Fog,0,2013-01-11 05:54:00